N2DJ Weather Reports


Display with metric or nautical units.
time (UTC)temp
F
wind
direction
speed
MPH
gust
MPH
rain 1hr
in
rain 24hr
in
rain mn
in
humidity
%
barometer
mb
20260901233037 78 207 0.0 0.0 0.00 0.08 0.04 89 1013.9
20260901231538 79 207 0.0 0.0 0.00 0.08 0.04 87 1014.1
20260901230036 80 205 0.0 3.0 0.00 0.08 0.04 87 1014.3
20260901224534 80 253 0.0 1.0 0.00 0.08 0.04 87 1014.3
20260901223036 81 254 0.0 3.0 0.00 0.08 0.04 85 1014.4
20260901221540 82 223 0.0 4.0 0.00 0.08 0.04 83 1014.4
20260901220032 83 209 1.0 5.0 0.00 0.08 0.04 81 1014.2
20260901214532 84 262 0.0 2.0 0.00 0.08 0.04 80 1014.3
20260901213030 84 246 1.0 4.0 0.00 0.08 0.04 80 1014.3
20260901211529 83 198 1.0 3.0 0.00 0.08 0.04 80 1014.2
20260901210029 82 135 1.0 3.0 0.00 0.08 0.04 83 1014.1
20260901204529 82 221 0.0 4.0 0.00 0.08 0.04 83 1014.2
20260901203028 83 193 1.0 4.0 0.00 0.08 0.04 82 1014.3
20260901201526 82 208 0.0 3.0 0.00 0.08 0.04 84 1014.3
20260901200025 82 355 0.0 1.0 0.00 0.08 0.04 84 1014.6
20260901194524 82 360 1.0 3.0 0.00 0.10 0.04 83 1014.6
20260901193026 82 347 0.0 3.0 0.00 0.10 0.04 84 1014.5
20260901191547 82 343 1.0 3.0 0.00 0.10 0.04 84 1014.5
20260901190024 81 318 0.0 4.0 0.00 0.10 0.04 84 1014.6
20260901184522 82 320 1.0 5.0 0.00 0.12 0.04 84 1014.7
20260901183021 82 340 1.0 7.0 0.00 0.12 0.04 84 1014.7
20260901181521 82 9 2.0 5.0 0.00 0.12 0.04 84 1014.7
20260901180020 81 15 0.0 8.0 0.00 0.12 0.04 84 1014.5
20260901174520 82 33 3.0 6.0 0.00 0.15 0.04 82 1014.4
20260901173024 82 341 2.0 6.0 0.00 0.15 0.04 83 1014.1
20260901171523 82 217 1.0 4.0 0.00 0.15 0.04 81 1014.0
20260901170019 82 320 0.0 5.0 0.00 0.15 0.04 80 1014.0
20260901164534 82 289 0.0 3.0 0.00 0.15 0.04 82 1014.2
20260901163016 82 165 0.0 3.0 0.00 0.15 0.04 82 1014.2
20260901161532 82 96 0.0 4.0 0.00 0.15 0.04 82 1014.1
20260901160012 81 331 1.0 6.0 0.00 0.15 0.04 83 1014.2
20260901154510 81 305 0.0 3.0 0.00 0.15 0.04 83 1014.0
20260901153007 80 189 1.0 5.0 0.00 0.15 0.04 83 1014.2
20260901151506 80 236 1.0 5.0 0.00 0.15 0.04 84 1014.1
20260901150004 79 296 0.0 3.0 0.00 0.16 0.04 84 1014.0
20260901144501 79 234 0.0 2.0 0.00 0.16 0.04 86 1013.9
20260901143100 78 319 0.0 3.0 0.00 0.16 0.04 87 1014.0
20260901141557 78 310 0.0 3.0 0.00 0.16 0.04 88 1014.1
20260901140057 78 5 0.0 0.0 0.00 0.16 0.04 91 1014.1
20260901134551 77 286 0.0 0.0 0.00 0.26 0.04 95 1014.1
20260901133047 75 319 0.0 3.0 0.00 0.26 0.04 99 1014.2
20260901131544 74 257 0.0 3.0 0.00 0.26 0.04 100 1014.2
20260901130046 74 306 0.0 3.0 0.00 0.26 0.04 100 1014.3
20260901124537 73 261 0.0 3.0 0.00 0.35 0.04 100 1014.3
20260901123032 72 339 0.0 3.0 0.00 0.35 0.04 100 1014.3
20260901121526 71 247 0.0 1.0 0.00 0.35 0.04 100 1014.2
20260901120022 71 247 0.0 0.0 0.00 0.35 0.04 100 1013.9
20260901114519 70 247 0.0 1.0 0.00 0.37 0.04 100 1013.9
20260901113017 70 247 0.0 0.0 0.00 0.37 0.04 100 1013.9
20260901111515 70 247 0.0 0.0 0.00 0.37 0.04 100 1013.7
20260901110013 69 247 0.0 0.0 0.00 0.37 0.04 100 1013.7
20260901104515 69 247 0.0 0.0 0.00 0.38 0.04 100 1013.7
20260901103012 69 247 0.0 1.0 0.00 0.38 0.04 99 1013.6
20260901101611 69 247 0.0 1.0 0.00 0.38 0.04 100 1013.4
20260901100110 69 247 0.0 1.0 0.00 0.38 0.04 100 1013.3
20260901094510 69 247 0.0 0.0 0.00 0.38 0.04 100 1013.4
20260901093008 69 247 0.0 3.0 0.00 0.38 0.04 99 1013.2
20260901091515 69 225 0.0 3.0 0.01 0.38 0.04 100 1013.1
20260901090008 69 225 0.0 0.0 0.02 0.38 0.04 100 1013.3
20260901084507 69 225 0.0 1.0 0.02 0.38 0.04 100 1013.1
20260901083006 69 225 0.0 0.0 0.03 0.38 0.04 99 1013.0
20260901081509 69 225 0.0 0.0 0.02 0.37 0.03 100 1013.1
20260901080004 69 225 0.0 0.0 0.01 0.38 0.02 100 1013.1
20260901074502 69 225 0.0 1.0 0.01 0.38 0.02 100 1013.4
20260901073002 69 225 0.0 1.0 0.00 0.37 0.01 100 1013.4
20260901071600 69 225 0.0 2.0 0.00 0.37 0.01 99 1013.6
20260901070112 69 226 0.0 0.0 0.00 0.37 0.01 99 1013.7
20260901064558 69 226 0.0 0.0 0.00 0.42 0.01 99 1013.9
20260901063056 69 226 0.0 0.0 0.00 0.42 0.01 99 1014.2
20260901061555 69 226 0.0 0.0 0.00 0.42 0.01 99 1014.4
20260901060053 69 226 0.0 0.0 0.00 0.42 0.01 99 1014.7
20260901054553 69 226 0.0 0.0 0.00 0.43 0.01 99 1014.8
20260901053054 69 236 0.0 0.0 0.00 0.43 0.01 99 1014.9
20260901051552 69 236 0.0 0.0 0.00 0.43 0.01 99 1014.9
20260901050053 69 236 0.0 0.0 0.01 0.43 0.01 99 1015.1
20260901044556 69 236 0.0 0.0 0.01 0.43 0.01 99 1015.3
20260901043046 69 236 0.0 0.0 0.01 0.43 0.01 99 1015.7
20260901041545 69 237 0.0 0.0 0.01 0.43 0.01 99 1015.6
20260901040049 69 237 0.0 0.0 0.00 0.42 0.00 99 1015.7
20260901034543 69 237 0.0 0.0 0.00 0.42 0.42 99 1015.8
20260901033054 69 237 0.0 0.0 0.00 0.42 0.42 99 1015.8
20260901031539 69 237 0.0 0.0 0.00 0.42 0.42 99 1016.0
20260901030039 70 237 0.0 0.0 0.00 0.42 0.42 99 1016.1
20260901024538 70 237 0.0 0.0 0.00 0.42 0.42 99 1016.1
20260901023042 70 237 0.0 2.0 0.00 0.42 0.42 99 1016.5
20260901021554 70 238 0.0 1.0 0.04 0.42 0.42 99 1016.6
20260901020038 71 238 0.0 2.0 0.04 0.42 0.42 98 1016.5
20260901014536 71 238 0.0 2.0 0.04 0.42 0.42 99 1016.7
20260901013047 71 238 0.0 0.0 0.04 0.42 0.42 98 1016.8
20260901011554 71 236 0.0 4.0 0.00 0.38 0.38 98 1017.2
20260901010034 71 215 0.0 1.0 0.00 0.38 0.38 98 1016.9
20260901004534 71 215 0.0 2.0 0.00 0.38 0.38 98 1016.7
20260901003042 71 216 0.0 3.0 0.00 0.38 0.38 98 1016.4
20260901001534 71 243 0.0 0.0 0.00 0.38 0.38 98 1016.3
20260901000035 71 243 0.0 0.0 0.00 0.38 0.38 98 1016.4
20260831234532 72 243 0.0 0.0 0.00 0.38 0.38 97 1016.5